Weather in Manevichi

Ukraine / Volyn Oblast     51°17′33″N   25°32′02″E
temp.,
°C
wind,
m/s
gust,
m/s
humid.,
%
clouds,
%
prec.,
mm/h
press.,
hPa
HPBL,
m
18 may, tue
tue1800:00+12nnw119252 0.0 100210
03:00+11nw1194100 0.0 100211
06:00+11nw2294100 0.0 100133
09:00+15nw2377100 0.0 1001418
12:00+18nnw2366100 0.6 1001930
15:00+17nne238098 4.0 1001556
18:00+14n489587 3.8 1001388
21:00+13nw499781 6.6 1002346
19 may, wed
wed1900:00+12wnw3995100 1.8 1003337
03:00+11nw41097100 2.1 1004479
06:00+11wnw51095100 0.0 1005563
09:00+12wnw5988100 0.0 1007751
12:00+12nw5887100 0.2 1009664
15:00+15nw576898 0.3 10091081
18:00+15nw566562 0.0 10091011
21:00+12nw2780100 0.0 1010288
20 may, thu
thu2000:00+10nw3792100 0.0 1010142
03:00+8nnw259647 0.0 1010101
06:00+8nnw26978 0.0 1011122
09:00+13n4671100 0.0 1011572
12:00+16nnw455780 0.1 10101544
15:00+17n675442 0.1 10101740
18:00+16n5766100 0.1 10111363
21:00+12n41079100 0.2 1012362
21 may, fri
fri2100:00+11n3786100 0.0 1013180
03:00+9n41185100 0.0 1015357
06:00+9nnw41085100 0.0 1016370
09:00+11n5870100 0.0 1017562
12:00+15n5647100 0.0 10181291
15:00+17nnw454482 0.0 10181950
18:00+16nnw454620 0.0 10181892
21:00+11n22715 0.0 101926
22 may, sat
sat2200:00+8nne23825 0.0 101960
03:00+7nnw22840 0.0 101918
06:00+6e1184100 0.0 101910
09:00+13se11588 0.0 1019376
12:00+17s23415 0.0 10181501
15:00+19ssw344072 0.0 10171724
18:00+19s34455 0.0 10161542
21:00+14sse2271100 0.0 101622